Location: Gro�bocka
(50.8204°N, 11.9702°E)
Time: 13:58:26
(UTC+00:00)

Cosmos 2297 Rocket - Pass Details

Date: 29 October 2020
Orbit: 838 x 845 km, 71.0° (Epoch: 28 November)

Event Time Altitude Azimuth Distance (km) Brightness Sun altitude
Rises 17:30:14 0° 326° (NW) 3,416 5.8 -16.0°
Reaches altitude 10° 17:32:47 10° 320° (NW) 2,476 5.1 -16.4°
Maximum altitude 17:38:07 44° 251° (WSW) 1,163 3.4 -17.3°
Drops below altitude 10° 17:43:25 10° 181° (S) 2,458 4.6 -18.1°
Sets 17:45:57 0° 174° (S) 3,388 5.3 -18.5°
